sat.trackr.live / text

‹ back to catalog

SWISSCUBE

NORAD 35932 · 2009-051B

PAYLOAD ACTIVE UNKNOWN

§ Identity

Operator
Country
SWTZ
Launch date
2009-09-23
Launch site
SRILR
Launch vehicle
Mass (kg)
RCS (m²)
0.05

Purposes: comms, tech_demo

External: N2YO · Heavens-Above · Gunter

§ Orbital elements

Epoch: 2026-05-25T04:19:15.614112Z

Period
98.47 min
Inclination
98.4052°
Eccentricity
0.0005520
Mean motion
14.62429289 rev/d
Perigee alt
681.4 km
Apogee alt
689.2 km
Semi-major
7,063.5 km
B*
1.8113e-4
RAAN
52.6668°
Arg perigee
290.4540°
Mean anomaly
69.6068°
Rev number
88,579

§ Raw data

SWISSCUBE1 35932U 09051B   26145.18004183  .00000867  00000+0  18113-3 0  99972 35932  98.4052  52.6668 0005520 290.4540  69.6068 14.62429289885790

JSON: /api/v1/satellites/35932 · /tle

For live sub-satellite position, see the globe view (requires WebGL).

§ Visibility from observer

Set your observer location to see the next 7 days of passes ≥ 10°. The values pass through the URL so the page stays shareable.

No JS? Fill the form by hand. The geolocation button needs JavaScript.

§ Radio — SatNOGS DB

ModeDescriptionDownlinkUplink
CW CW Beacon 437.505 MHz
AFSK FSK 1k2 Beacon 437.505 MHz
BPSK PE0SAT - 1k2 BPSK AFSK Tones 437.500 MHz
CW PE0SAT - CW Beacon 437.501 MHz

4 transmitters · refreshed weekly from db.satnogs.org